When you browse on this site, cookies collect data to enhance your experience and personalize the content and advertising you see.
Visit our Privacy Policy to learn more. By continuing to use the site, you agree to this use of cookies and data.
  • In Netherlands
  • List of Countries
  • For 7 days
  • Water Temperature
  • Satellite Maps
  • Weather Map
  • Weather Widgets
  • user-avatar
    Login

    Hourly Weather Gaborone

    Today, 20 July, Saturday

    Time Temperature Precipitation Wind Pressure Humidity
    00:00 +11°C° 0 mm 3 mps 678 mmHg 21%
    01:00 +10°C° 0 mm 2 mps 678 mmHg 22%
    02:00 +10°C° 0 mm 2 mps 678 mmHg 22%
    03:00 +9°C° 0 mm 2 mps 678 mmHg 26%
    04:00 +8°C° 0 mm 2 mps 677 mmHg 30%
    05:00 +8°C° 0 mm 2 mps 677 mmHg 34%
    06:00 +8°C° 0 mm 2 mps 678 mmHg 39%
    07:00 +9°C° 0 mm 2 mps 678 mmHg 43%
    08:00 +9°C° 0 mm 2 mps 679 mmHg 48%
    09:00 +13°C° 0 mm 3 mps 680 mmHg 39%
    10:00 +17°C° 0 mm 4 mps 681 mmHg 30%
    11:00 +21°C° 0 mm 4 mps 681 mmHg 22%
    12:00 +22°C° 0 mm 4 mps 681 mmHg 19%
    13:00 +23°C° 0 mm 4 mps 680 mmHg 17%
    14:00 +26°C° 0 mm 5 mps 680 mmHg 14%
    15:00 +25°C° 0 mm 4 mps 680 mmHg 14%
    16:00 +24°C° 0 mm 3 mps 679 mmHg 14%
    17:00 +24°C° 0 mm 3 mps 679 mmHg 14%
    18:00 +20°C° 0 mm 3 mps 679 mmHg 18%
    19:00 +17°C° 0 mm 3 mps 679 mmHg 22%
    20:00 +14°C° 0 mm 2 mps 679 mmHg 26%
    21:00 +13°C° 0 mm 2 mps 680 mmHg 30%
    22:00 +12°C° 0 mm 2 mps 680 mmHg 34%
    23:00 +10°C° 0 mm 2 mps 680 mmHg 38%

    Tomorrow, 21 July, Sunday

    Time Temperature Precipitation Wind Pressure Humidity
    00:00 +9°C° 0 mm 2 mps 680 mmHg 42%
    01:00 +8°C° 0 mm 2 mps 680 mmHg 45%
    02:00 +9°C° 0 mm 1 mps 680 mmHg 49%
    03:00 +8°C° 0 mm 1 mps 680 mmHg 52%
    04:00 +8°C° 0 mm 1 mps 680 mmHg 56%
    05:00 +7°C° 0 mm 1 mps 680 mmHg 59%
    06:00 +8°C° 0 mm 1 mps 680 mmHg 56%
    07:00 +8°C° 0 mm 1 mps 681 mmHg 53%
    08:00 +9°C° 0 mm 1 mps 681 mmHg 51%
    09:00 +12°C° 0 mm 2 mps 682 mmHg 43%
    10:00 +14°C° 0 mm 3 mps 683 mmHg 36%
    11:00 +18°C° 0 mm 4 mps 683 mmHg 29%
    12:00 +19°C° 0 mm 4 mps 683 mmHg 30%
    13:00 +20°C° 0 mm 5 mps 682 mmHg 31%
    14:00 +21°C° 0 mm 5 mps 682 mmHg 32%
    15:00 +20°C° 0 mm 5 mps 682 mmHg 35%
    16:00 +20°C° 0 mm 5 mps 681 mmHg 38%
    17:00 +19°C° 0 mm 5 mps 681 mmHg 40%
    18:00 +15°C° 0 mm 4 mps 681 mmHg 49%
    19:00 +13°C° 0 mm 3 mps 681 mmHg 57%
    20:00 +11°C° 0 mm 3 mps 681 mmHg 65%
    21:00 +10°C° 0 mm 3 mps 682 mmHg 68%
    22:00 +10°C° 0 mm 3 mps 682 mmHg 70%
    23:00 +9°C° 0 mm 3 mps 682 mmHg 72%

    Day after tomorrow, 22 July, Monday

    Time Temperature Precipitation Wind Pressure Humidity
    00:00 +8°C° 0 mm 3 mps 682 mmHg 78%
    01:00 +7°C° 0 mm 3 mps 682 mmHg 83%
    02:00 +5°C° 0 mm 3 mps 682 mmHg 88%
    03:00 +6°C° 0 mm 2 mps 682 mmHg 90%
    04:00 +5°C° 0 mm 2 mps 681 mmHg 92%
    05:00 +4°C° 0 mm 2 mps 681 mmHg 93%
    06:00 +5°C° 0 mm 2 mps 681 mmHg 92%
    07:00 +5°C° 0 mm 2 mps 682 mmHg 90%
    08:00 +5°C° 0 mm 2 mps 682 mmHg 89%
    09:00 +8°C° 0 mm 3 mps 682 mmHg 74%
    10:00 +11°C° 0 mm 3 mps 682 mmHg 60%
    11:00 +15°C° 0 mm 4 mps 682 mmHg 45%
    12:00 +18°C° 0 mm 4 mps 682 mmHg 38%
    13:00 +19°C° 0 mm 4 mps 681 mmHg 31%
    14:00 +21°C° 0 mm 3 mps 680 mmHg 24%
    15:00 +21°C° 0 mm 3 mps 680 mmHg 23%
    16:00 +21°C° 0 mm 2 mps 680 mmHg 23%
    17:00 +21°C° 0 mm 2 mps 680 mmHg 22%
    18:00 +19°C° 0 mm 2 mps 679 mmHg 28%
    19:00 +16°C° 0 mm 2 mps 678 mmHg 34%
    20:00 +13°C° 0 mm 2 mps 678 mmHg 39%
    21:00 +12°C° 0 mm 1 mps 678 mmHg 43%
    22:00 +11°C° 0 mm 1 mps 678 mmHg 46%
    23:00 +10°C° 0 mm 1 mps 678 mmHg 50%

    23 July, Tuesday

    Time Temperature Precipitation Wind Pressure Humidity
    00:00 +9°C° 0 mm 1 mps 678 mmHg 53%
    01:00 +8°C° 0 mm 1 mps 677 mmHg 55%
    02:00 +7°C° 0 mm 0 mps 677 mmHg 58%
    03:00 +7°C° 0 mm 1 mps 677 mmHg 61%
    04:00 +7°C° 0 mm 1 mps 676 mmHg 63%
    05:00 +6°C° 0 mm 1 mps 676 mmHg 65%
    06:00 +7°C° 0 mm 1 mps 677 mmHg 62%
    07:00 +8°C° 0 mm 1 mps 677 mmHg 59%
    08:00 +9°C° 0 mm 1 mps 677 mmHg 56%
    09:00 +13°C° 0 mm 2 mps 678 mmHg 46%
    10:00 +16°C° 0 mm 2 mps 679 mmHg 36%
    11:00 +20°C° 0 mm 3 mps 679 mmHg 26%
    12:00 +24°C° 0 mm 3 mps 679 mmHg 21%
    13:00 +26°C° 0 mm 4 mps 678 mmHg 16%
    14:00 +29°C° 0 mm 4 mps 677 mmHg 12%
    15:00 +28°C° 0 mm 4 mps 677 mmHg 12%
    16:00 +27°C° 0 mm 3 mps 677 mmHg 12%
    17:00 +27°C° 0 mm 3 mps 676 mmHg 13%
    18:00 +24°C° 0 mm 3 mps 676 mmHg 16%
    19:00 +20°C° 0 mm 2 mps 676 mmHg 20%
    20:00 +17°C° 0 mm 2 mps 675 mmHg 23%
    21:00 +16°C° 0 mm 2 mps 675 mmHg 25%
    22:00 +16°C° 0 mm 2 mps 675 mmHg 26%
    23:00 +14°C° 0 mm 3 mps 675 mmHg 27%

    24 July, Wednesday

    Time Temperature Precipitation Wind Pressure Humidity
    00:00 +15°C° 0 mm 2 mps 674 mmHg 29%
    01:00 +14°C° 0 mm 2 mps 674 mmHg 31%
    02:00 +14°C° 0 mm 2 mps 674 mmHg 33%
    03:00 +13°C° 0 mm 3 mps 674 mmHg 34%
    04:00 +12°C° 0 mm 3 mps 674 mmHg 36%
    05:00 +12°C° 0 mm 3 mps 674 mmHg 37%
    06:00 +12°C° 0 mm 3 mps 675 mmHg 35%
    07:00 +12°C° 0 mm 3 mps 676 mmHg 33%
    08:00 +12°C° 0 mm 3 mps 677 mmHg 31%
    09:00 +14°C° 0 mm 4 mps 678 mmHg 27%
    10:00 +17°C° 0 mm 5 mps 678 mmHg 23%
    11:00 +20°C° 0 mm 6 mps 679 mmHg 20%
    12:00 +21°C° 0 mm 6 mps 679 mmHg 20%
    13:00 +21°C° 0 mm 6 mps 679 mmHg 20%
    14:00 +22°C° 0 mm 7 mps 679 mmHg 21%
    15:00 +20°C° 0 mm 6 mps 679 mmHg 24%
    16:00 +19°C° 0 mm 6 mps 679 mmHg 28%
    17:00 +17°C° 0 mm 6 mps 679 mmHg 31%
    18:00 +14°C° 0 mm 5 mps 679 mmHg 36%
    19:00 +12°C° 0 mm 4 mps 679 mmHg 42%
    20:00 +9°C° 0 mm 3 mps 680 mmHg 47%
    21:00 +8°C° 0 mm 3 mps 680 mmHg 50%
    22:00 +7°C° 0 mm 2 mps 680 mmHg 53%
    23:00 +6°C° 0 mm 2 mps 680 mmHg 56%

    25 July, Thursday

    Time Temperature Precipitation Wind Pressure Humidity
    00:00 +5°C° 0 mm 2 mps 680 mmHg 58%
    01:00 +4°C° 0 mm 2 mps 680 mmHg 60%
    02:00 +3°C° 0 mm 2 mps 680 mmHg 63%
    03:00 +3°C° 0 mm 2 mps 680 mmHg 62%
    04:00 +2°C° 0 mm 2 mps 681 mmHg 62%
    05:00 +2°C° 0 mm 2 mps 681 mmHg 61%
    06:00 +2°C° 0 mm 2 mps 681 mmHg 58%
    07:00 +3°C° 0 mm 2 mps 682 mmHg 55%
    08:00 +4°C° 0 mm 2 mps 682 mmHg 51%
    09:00 +7°C° 0 mm 3 mps 682 mmHg 40%
    10:00 +11°C° 0 mm 3 mps 682 mmHg 29%
    11:00 +14°C° 0 mm 3 mps 683 mmHg 18%
    12:00 +17°C° 0 mm 3 mps 682 mmHg 15%
    13:00 +19°C° 0 mm 2 mps 682 mmHg 12%
    14:00 +22°C° 0 mm 1 mps 682 mmHg 10%
    15:00 +21°C° 0 mm 1 mps 681 mmHg 10%
    16:00 +21°C° 0 mm 1 mps 681 mmHg 10%
    17:00 +20°C° 0 mm 1 mps 681 mmHg 10%
    18:00 +18°C° 0 mm 1 mps 681 mmHg 13%
    19:00 +14°C° 0 mm 1 mps 681 mmHg 15%
    20:00 +11°C° 0 mm 1 mps 680 mmHg 18%
    21:00 +10°C° 0 mm 1 mps 680 mmHg 19%
    22:00 +10°C° 0 mm 1 mps 681 mmHg 20%
    23:00 +9°C° 0 mm 1 mps 681 mmHg 21%
    Show more